Temperature
31 32 32 32 32 32 32 31 31 31 31 30 30 29 28 27 26 26 26 25 24 23 22 21 20 19 19 19 19 19 18 18 18 18 18 17 17 17 17 17 17 17 16 16
31 31 32 32 32 31 32 31 31 30 30 30 30 29 29 28 27 26 26 25 24 23 22 21 20 20 19 19 19 19 18 18 18 18 18 17 17 17 17 17 17 17 16 16
31 32 32 32 32 31 32 31 31 30 30 30 30 29 29 28 27 26 25 25 24 23 22 21 20 20 19 19 19 19 18 18 18 18 17 17 17 17 17 17 17 17 16 16
32 32 31 32 32 32 31 31 31 30 30 31 30 30 29 29 28 27 26 25 25 24 23 22 21 20 20 19 19 19 19 18 18 18 17 17 17 17 17 17 16 16 16 16
31 32 31 31 31 31 31 31 31 31 31 31 30 30 30 29 28 28 27 26 25 24 23 22 21 20 20 19 19 19 18 18 18 18 17 17 17 17 16 16 16 16 16 16
32 32 32 32 31 31 31 31 31 31 31 30 30 30 30 30 29 29 28 26 25 24 23 22 21 20 20 20 19 19 18 18 18 18 17 17 17 17 16 16 16 16 16 16
31 32 32 31 31 31 31 31 30 30 30 30 30 30 29 29 29 29 28 26 25 24 23 22 21 20 20 20 19 19 18 18 18 18 17 17 17 17 16 16 16 16 16 16
31 31 31 32 31 31 31 31 30 29 30 30 30 30 30 29 28 27 27 26 25 24 23 22 21 20 20 20 19 19 18 18 18 17 17 17 17 16 16 16 16 16 16 16
31 31 32 31 31 32 31 31 32 31 30 30 30 30 30 29 28 28 27 26 25 24 23 22 21 21 20 20 19 19 18 18 17 17 17 17 17 16 16 16 16 16 16 16
32 30 31 31 31 31 31 32 31 31 29 29 30 29 29 29 28 28 27 26 26 24 23 22 22 21 20 20 19 18 18 18 17 17 17 17 17 16 16 16 16 16 16 16
32 31 31 31 30 31 30 30 30 31 30 29 29 29 30 29 28 28 28 26 25 24 23 22 21 21 20 19 19 18 18 17 17 17 17 17 17 16 16 16 16 16 16 16
31 31 30 31 31 31 31 31 31 30 29 29 29 29 29 29 29 28 27 26 25 24 23 22 21 20 20 19 19 18 18 17 17 17 17 16 16 16 16 16 16 15 15 15
30 30 29 29 30 30 30 30 31 31 30 29 29 29 29 29 28 28 26 25 24 23 22 22 21 20 20 19 19 18 18 18 17 17 17 16 16 16 16 16 15 15 15 15
29 30 30 29 30 31 30 30 30 30 29 29 29 29 29 29 28 27 26 25 24 23 22 21 21 20 19 19 18 18 18 17 17 17 17 16 16 16 16 16 15 15 15 15
30 30 30 30 30 30 30 30 30 29 29 29 29 29 29 29 28 27 25 25 24 23 22 21 20 20 19 18 18 18 18 17 17 17 17 16 16 16 15 15 15 15 15 15
29 29 29 29 29 29 29 29 30 29 29 29 29 29 29 28 27 26 25 24 24 23 22 21 20 19 19 18 18 18 17 17 17 17 17 16 16 16 15 15 15 15 15 14
29 28 28 29 29 29 28 29 29 29 29 29 29 29 28 27 26 25 24 24 24 23 22 20 20 19 19 18 18 18 17 17 17 17 16 16 16 16 15 15 15 15 14 14
27 27 28 28 28 26 29 29 29 29 29 29 29 29 28 27 26 24 24 23 23 22 21 20 20 19 19 18 18 18 17 17 16 16 16 16 16 16 15 15 15 15 14 14
27 27 28 28 27 27 28 28 29 28 28 29 28 28 27 26 25 24 23 23 22 21 21 20 20 20 19 18 18 17 17 17 17 16 16 16 16 15 15 15 15 14 14 14
26 26 27 27 27 27 28 28 28 28 27 27 27 27 26 26 27 26 23 22 21 21 20 20 19 19 18 18 18 17 17 16 16 16 16 16 15 15 15 15 14 14 14 14
26 26 26 27 27 27 28 27 27 27 27 26 26 26 25 25 26 24 22 21 20 20 19 19 19 18 18 18 17 17 16 16 16 16 16 15 15 15 14 14 14 14 13 13
26 26 26 26 26 26 26 26 26 25 24 24 24 24 24 24 23 22 21 20 20 19 19 19 18 18 17 17 17 16 16 16 15 15 15 15 15 14 14 14 14 13 13 13
26 26 27 26 26 24 24 25 23 23 23 23 23 23 23 22 22 21 20 20 19 19 18 18 18 17 17 17 17 16 16 15 15 15 15 15 14 14 13 13 13 13 13 13
24 23 24 24 25 24 23 22 22 22 22 22 22 22 22 21 21 20 20 19 19 18 18 17 17 17 17 17 16 16 16 15 15 14 14 14 14 13 13 13 13 13 13 13
24 23 24 23 23 23 22 21 21 21 21 21 21 21 21 21 20 20 19 19 18 18 17 17 17 17 16 16 16 16 15 15 14 14 14 14 13 13 13 13 13 13 13 13
23 23 23 24 22 23 22 21 20 20 20 20 20 20 20 20 19 19 19 18 17 17 17 16 16 16 16 16 15 15 15 15 14 14 14 14 14 13 13 13 13 13 13 12
Wind_Speed
5 6 4 3 4 5 4 4 2 2 0 3 3 1 2 5 6 6 6 6 6 6 6 6 5 5 5 4 4 3 2 2 1 0 1 0 0 0 0 0 1 1 2 2
7 6 3 3 3 4 4 4 2 1 1 2 2 2 2 4 5 5 5 5 5 5 6 7 6 6 5 5 4 4 3 2 1 0 0 1 1 1 0 1 1 1 1 1
9 2 1 4 4 4 4 4 2 1 2 3 4 4 4 4 5 5 5 5 6 6 7 7 7 6 6 5 5 4 3 3 2 1 1 1 0 0 0 0 0 1 1 1
7 3 4 5 4 5 3 2 3 3 5 2 4 2 4 5 5 6 6 6 6 6 6 7 8 7 7 6 5 5 4 3 3 2 1 1 0 1 1 1 1 1 1 2
6 5 5 5 3 4 2 1 3 4 5 4 3 5 3 5 3 4 5 6 6 6 6 6 7 7 7 6 6 5 5 4 3 3 2 1 1 0 1 1 2 1 1 2
6 4 5 4 2 3 3 4 5 6 7 5 2 5 0 2 1 2 4 5 6 6 6 6 6 6 6 6 6 5 5 4 4 3 3 2 1 1 1 1 1 1 1 1
9 8 5 4 5 6 7 7 5 5 5 2 1 4 1 3 0 1 2 4 5 6 7 7 7 6 6 6 6 5 5 5 5 4 3 3 2 2 1 2 1 2 2 1
10 9 7 6 6 5 6 8 6 6 6 3 2 3 2 3 1 1 3 4 5 6 6 7 7 7 6 6 6 5 5 5 5 4 4 3 3 2 1 1 2 2 2 2
9 7 6 4 4 6 7 7 8 8 8 7 3 1 2 3 3 4 4 5 5 6 6 7 7 7 6 6 5 5 5 5 4 4 4 3 3 2 2 1 2 2 2 2
8 7 6 6 6 4 6 6 6 7 6 7 4 4 1 2 3 4 5 5 5 6 7 7 7 6 6 5 5 5 5 4 4 4 3 3 3 2 2 1 1 2 2 2
10 9 8 8 8 7 6 7 6 6 7 8 6 1 3 1 3 5 5 5 5 5 6 7 6 6 6 6 6 5 5 4 4 3 3 2 2 2 1 1 1 1 1 1
9 8 8 9 6 5 8 8 8 7 6 7 8 1 4 2 3 4 5 5 5 5 6 6 7 7 6 6 6 5 4 4 4 3 3 2 2 1 1 1 1 1 1 1
8 8 9 9 9 8 8 8 10 9 8 8 8 2 5 3 3 4 5 5 5 5 6 6 7 7 6 6 5 5 4 4 4 4 3 3 2 2 1 0 1 1 1 1
6 10 10 10 6 6 9 9 9 10 8 8 7 4 2 3 4 4 5 5 6 6 6 6 7 7 6 6 6 5 4 4 4 4 4 3 2 1 1 1 1 0 0 1
6 9 9 7 6 6 8 8 9 10 9 9 6 5 3 2 3 4 5 6 5 6 6 6 6 6 6 6 6 5 4 4 4 4 4 3 3 2 1 1 0 0 0 0
5 7 8 8 7 7 9 8 9 9 9 9 8 6 2 1 3 4 5 5 5 5 5 5 5 5 6 6 6 5 5 4 4 4 3 3 3 2 2 1 1 1 0 0
7 7 9 9 8 9 11 8 9 9 8 9 8 4 2 3 4 5 5 4 4 4 4 4 5 5 5 5 5 5 5 5 5 4 3 3 3 3 2 2 1 1 1 1
7 8 8 9 9 12 6 3 6 7 6 6 5 3 3 2 4 5 4 4 3 3 3 4 4 5 5 6 6 5 6 5 5 4 3 3 3 3 3 2 2 1 1 1
7 7 8 9 11 10 6 4 6 7 6 4 4 3 2 3 4 5 4 3 3 3 4 4 4 4 4 5 5 5 5 4 4 4 4 3 3 3 3 2 2 1 1 1
7 8 9 9 11 10 5 3 3 6 7 2 3 3 4 5 5 3 4 4 4 4 4 4 4 5 5 4 5 5 4 3 3 3 3 3 3 3 3 3 2 1 2 2
10 9 11 11 11 8 1 3 5 7 2 1 2 3 5 4 1 3 5 4 4 4 4 4 5 5 4 4 4 4 3 3 2 2 2 2 2 3 3 2 2 2 2 1
10 10 10 10 12 7 3 4 4 2 3 1 1 2 3 2 4 5 4 4 4 4 4 4 5 5 5 4 4 4 3 2 2 2 2 2 2 2 2 2 2 2 2 3
6 5 5 5 3 4 2 1 2 2 1 1 1 1 2 3 4 4 4 4 4 4 4 4 4 5 4 4 4 3 2 2 2 2 2 2 2 2 2 2 3 3 3 3
4 1 2 3 2 1 2 1 1 1 1 1 1 1 2 3 4 4 4 4 3 4 4 4 4 4 4 3 3 2 2 2 2 2 2 2 2 2 2 2 3 3 3 3
2 4 4 4 3 2 2 0 1 1 1 1 1 2 2 3 4 3 3 3 3 3 3 3 3 3 3 3 3 3 3 3 3 2 2 2 2 2 3 3 3 4 3 2
4 4 5 4 2 2 1 1 0 0 0 1 2 2 2 3 3 3 2 2 2 2 3 3 3 2 3 3 3 3 3 3 3 3 3 3 3 2 3 3 3 1 2 2
Wind_Direction
217 235 251 295 292 294 291 294 309 359 62 239 239 221 164 172 186 190 188 187 188 185 173 168 167 160 157 154 152 149 151 138 171 190 293 293 281 281 10 27 19 339 335 335
218 228 272 297 271 246 250 264 263 120 138 257 250 237 178 177 193 200 200 194 187 178 171 169 174 173 172 168 164 165 172 165 199 186 333 345 351 314 46 13 35 329 326 308
236 247 249 245 235 236 242 274 286 249 201 221 245 210 175 173 189 196 207 204 194 189 184 176 180 184 183 179 176 177 177 176 191 191 171 105 89 305 37 25 23 5 344 327
238 232 244 243 244 266 256 291 254 227 242 254 265 281 151 175 185 197 205 203 197 189 185 180 179 185 187 184 178 175 172 176 177 184 197 200 26 359 10 3 22 19 8 349
219 223 238 248 270 273 311 250 226 237 262 268 248 276 133 169 202 203 200 197 196 192 186 179 176 181 185 181 179 173 168 172 174 178 177 199 234 310 7 13 27 350 22 8
239 225 251 259 235 216 177 197 205 228 250 262 291 282 191 136 214 194 181 185 190 186 181 174 166 169 177 178 179 173 168 171 172 176 178 204 224 264 326 347 350 327 17 10
213 210 205 219 210 194 223 249 251 243 243 273 148 271 357 64 73 228 180 175 176 178 176 171 171 172 174 175 178 173 171 173 175 179 188 200 215 218 238 283 312 326 343 336
218 211 201 211 239 244 239 264 278 290 295 295 206 277 66 92 95 143 161 160 164 171 171 169 173 174 173 170 169 172 174 178 180 183 193 204 223 236 256 285 311 326 326 328
230 221 182 203 234 253 246 254 279 280 279 279 277 262 157 143 146 148 150 154 160 165 165 170 171 169 164 161 162 168 170 176 183 186 193 202 214 242 268 280 289 311 327 331
237 234 207 193 207 218 267 264 259 271 283 283 272 259 284 155 169 162 159 159 152 154 162 165 164 164 158 156 154 158 159 168 177 180 196 190 206 214 226 263 313 319 329 343
236 233 211 205 221 230 215 231 250 268 281 284 287 318 59 149 180 178 167 157 149 155 160 159 158 156 155 157 154 155 157 160 164 169 180 193 194 198 212 229 273 288 318 338
223 237 233 221 208 249 245 245 243 256 263 270 283 293 94 124 164 171 158 144 146 151 154 155 154 154 157 160 159 156 159 161 162 160 170 174 185 191 212 222 296 304 321 332
202 230 227 219 207 207 227 237 248 257 260 263 270 253 120 140 162 166 161 153 151 150 153 156 158 159 161 161 158 160 166 159 158 158 164 156 164 169 185 238 301 312 342 345
225 236 245 254 254 222 221 227 239 250 253 259 264 275 190 183 175 171 170 166 159 154 159 164 165 168 164 162 162 168 172 166 164 168 169 166 178 190 207 216 204 241 320 0
225 236 241 256 262 245 239 237 232 243 260 271 275 274 284 231 189 174 174 168 160 160 164 167 172 167 167 166 170 175 175 173 172 177 181 179 182 182 194 210 214 188 18 20
227 235 232 236 232 237 240 236 233 237 251 259 263 267 312 189 167 166 170 171 171 170 168 165 166 166 168 171 175 174 178 179 178 185 186 183 190 191 195 198 206 199 187 307
211 222 236 242 230 242 238 233 237 239 246 257 260 259 179 181 174 175 170 172 173 167 160 164 168 170 170 173 176 178 177 179 180 184 188 190 195 191 192 196 185 202 201 159
217 226 234 243 233 243 248 233 241 245 247 250 257 245 207 197 181 165 160 161 158 150 151 160 168 166 171 172 173 176 172 176 181 186 190 194 200 198 194 195 190 195 187 177
217 219 235 242 242 240 226 224 226 233 234 243 246 228 193 163 170 157 150 153 149 142 144 160 168 164 166 165 162 166 171 172 183 195 203 207 210 207 201 203 205 199 196 209
202 217 234 237 249 249 223 187 222 239 229 209 232 216 196 195 224 168 145 151 138 129 134 151 157 158 159 157 158 166 172 178 193 199 206 203 206 208 208 204 207 204 217 230
202 212 228 238 246 245 217 151 195 231 236 139 225 217 205 208 294 104 131 139 131 127 130 143 154 154 153 156 159 171 175 188 193 189 194 196 203 208 200 193 203 214 228 246
218 219 223 235 243 239 115 169 215 337 25 152 198 205 205 164 116 126 133 139 137 133 134 140 145 145 151 158 166 179 183 180 177 186 193 190 197 217 186 187 206 218 231 229
231 250 243 239 242 78 110 116 42 14 338 270 213 187 174 168 160 152 147 150 150 146 143 147 147 146 152 156 170 187 174 170 181 182 183 169 176 211 208 213 217 222 232 247
192 242 231 224 190 127 126 94 14 0 327 278 205 161 167 173 163 156 149 152 157 154 152 157 162 161 155 161 176 178 166 178 189 188 183 174 182 202 204 234 241 249 253 255
215 200 217 225 212 194 172 137 24 23 10 121 148 150 164 164 157 148 148 149 156 157 156 161 172 176 173 174 183 175 160 185 199 196 193 198 205 218 224 232 249 256 261 283
221 225 238 240 194 239 226 18 346 269 146 142 148 146 137 141 145 138 138 138 162 170 168 176 186 183 173 175 179 170 178 193 208 213 214 224 225 220 235 229 224 199 238 159
Height
1503 1500 1499 1497 1495 1496 1496 1498 1501 1500 1499 1501 1502 1504 1507 1511 1514 1515 1517 1520 1522 1524 1526 1527 1528 1529 1530 1530 1530 1531 1531 1530 1530 1530 1530 1529 1528 1528 1527 1527 1526 1525 1525 1525
1501 1500 1496 1495 1496 1496 1497 1499 1499 1500 1501 1501 1502 1504 1504 1508 1512 1514 1516 1518 1520 1522 1524 1526 1527 1528 1529 1529 1529 1530 1530 1530 1530 1530 1529 1528 1528 1527 1527 1526 1526 1525 1525 1524
1499 1495 1496 1496 1495 1497 1496 1497 1498 1501 1501 1499 1502 1503 1503 1506 1510 1513 1515 1516 1518 1520 1522 1523 1525 1527 1528 1528 1529 1529 1529 1529 1529 1529 1529 1528 1527 1527 1527 1526 1526 1525 1524 1524
1495 1494 1496 1494 1494 1495 1498 1494 1496 1499 1502 1500 1501 1507 1502 1502 1505 1509 1511 1513 1515 1517 1520 1521 1523 1525 1526 1527 1528 1528 1528 1528 1528 1528 1529 1528 1528 1527 1527 1526 1526 1525 1524 1523
1494 1493 1494 1495 1494 1494 1496 1494 1495 1496 1497 1499 1499 1502 1500 1499 1503 1504 1507 1510 1513 1515 1517 1519 1521 1523 1525 1526 1527 1527 1527 1527 1527 1528 1528 1528 1528 1527 1527 1526 1526 1525 1524 1523
1491 1492 1493 1492 1493 1494 1495 1496 1496 1494 1493 1507 1502 1504 1503 1496 1499 1500 1504 1508 1511 1513 1516 1518 1520 1522 1523 1525 1526 1526 1526 1526 1526 1527 1527 1527 1527 1527 1527 1526 1526 1525 1524 1523
1494 1491 1492 1493 1493 1494 1494 1497 1505 1508 1507 1506 1498 1502 1502 1496 1497 1499 1502 1506 1509 1512 1514 1516 1518 1520 1522 1523 1524 1525 1524 1525 1525 1526 1526 1526 1526 1526 1526 1526 1525 1525 1524 1523
1496 1497 1489 1490 1491 1492 1491 1492 1508 1518 1513 1501 1498 1502 1496 1495 1498 1501 1503 1505 1508 1510 1512 1515 1517 1519 1520 1521 1522 1523 1523 1524 1524 1525 1525 1525 1526 1526 1526 1525 1525 1524 1524 1523
1490 1493 1486 1489 1489 1489 1491 1491 1486 1495 1499 1503 1499 1496 1493 1494 1497 1500 1502 1504 1506 1509 1511 1513 1515 1517 1519 1520 1521 1522 1522 1523 1523 1524 1524 1524 1524 1524 1524 1524 1524 1524 1522 1522
1482 1493 1486 1487 1489 1490 1488 1486 1490 1495 1512 1513 1504 1499 1497 1495 1496 1497 1500 1502 1505 1508 1510 1512 1514 1516 1518 1519 1520 1521 1521 1522 1522 1523 1524 1524 1523 1523 1523 1523 1522 1522 1521 1520
1479 1489 1489 1488 1490 1489 1492 1491 1492 1492 1495 1508 1511 1503 1488 1492 1494 1496 1498 1501 1504 1507 1509 1511 1513 1515 1517 1518 1519 1520 1521 1521 1522 1522 1522 1523 1522 1522 1522 1522 1521 1520 1520 1519
1481 1483 1488 1485 1483 1484 1484 1486 1488 1498 1502 1498 1501 1501 1487 1489 1492 1495 1498 1502 1504 1507 1508 1510 1513 1514 1516 1517 1519 1520 1521 1521 1521 1522 1522 1522 1521 1521 1521 1521 1520 1520 1519 1518
1481 1484 1496 1496 1491 1487 1486 1485 1482 1482 1488 1495 1500 1499 1488 1491 1492 1495 1498 1502 1504 1506 1508 1510 1512 1514 1515 1517 1518 1519 1520 1520 1521 1521 1521 1521 1521 1520 1520 1520 1519 1519 1518 1517
1482 1480 1486 1493 1486 1480 1485 1485 1484 1484 1492 1493 1493 1491 1488 1489 1491 1495 1498 1501 1503 1506 1507 1509 1511 1513 1514 1516 1516 1517 1519 1519 1520 1520 1520 1520 1520 1519 1519 1518 1518 1517 1517 1516
1480 1481 1480 1478 1477 1478 1481 1483 1483 1486 1485 1488 1487 1487 1486 1487 1490 1495 1497 1500 1502 1504 1506 1508 1510 1511 1513 1514 1515 1516 1517 1518 1518 1518 1519 1518 1518 1518 1517 1517 1516 1516 1516 1515
1480 1481 1481 1483 1479 1479 1482 1481 1481 1483 1483 1483 1484 1486 1484 1488 1491 1495 1497 1499 1501 1503 1505 1507 1508 1510 1511 1512 1513 1514 1515 1515 1516 1516 1517 1516 1516 1516 1516 1515 1515 1514 1514 1513
1479 1482 1485 1484 1480 1482 1486 1480 1479 1480 1479 1481 1484 1483 1485 1488 1491 1494 1497 1499 1500 1502 1504 1505 1507 1508 1509 1510 1511 1512 1513 1514 1514 1514 1515 1515 1515 1515 1514 1514 1514 1513 1512 1512
1481 1482 1481 1482 1487 1499 1482 1474 1475 1478 1478 1478 1479 1481 1484 1488 1491 1494 1496 1498 1500 1501 1503 1504 1505 1506 1508 1509 1510 1510 1511 1512 1512 1512 1513 1513 1513 1513 1513 1512 1512 1511 1511 1510
1478 1481 1481 1483 1486 1486 1479 1476 1476 1478 1480 1478 1479 1482 1485 1488 1490 1493 1496 1497 1499 1500 1501 1503 1504 1505 1506 1507 1508 1509 1509 1510 1510 1510 1511 1511 1511 1511 1511 1510 1510 1510 1509 1508
1478 1479 1480 1482 1489 1491 1478 1474 1476 1478 1482 1480 1481 1483 1485 1487 1486 1489 1494 1496 1498 1499 1500 1501 1502 1504 1504 1505 1506 1507 1508 1508 1508 1508 1508 1508 1508 1508 1508 1508 1508 1508 1507 1506
1478 1480 1480 1481 1483 1477 1472 1474 1477 1485 1484 1481 1482 1484 1485 1487 1488 1491 1494 1496 1497 1498 1499 1500 1501 1502 1502 1503 1504 1505 1506 1506 1506 1506 1506 1506 1506 1506 1506 1506 1506 1505 1505 1505
1472 1474 1478 1478 1483 1481 1475 1475 1478 1481 1482 1482 1484 1485 1487 1488 1490 1492 1493 1495 1496 1497 1497 1498 1499 1499 1500 1501 1502 1503 1504 1504 1504 1504 1504 1503 1503 1504 1504 1504 1503 1503 1503 1503
1469 1470 1468 1472 1476 1478 1478 1479 1481 1482 1483 1483 1484 1486 1487 1488 1490 1492 1493 1494 1495 1496 1496 1497 1497 1498 1499 1499 1500 1501 1502 1502 1502 1502 1502 1501 1501 1501 1502 1502 1501 1501 1501 1501
1472 1476 1474 1475 1475 1478 1480 1482 1482 1483 1483 1484 1485 1485 1486 1488 1489 1491 1492 1493 1494 1495 1495 1495 1496 1497 1497 1498 1498 1499 1499 1499 1500 1500 1499 1499 1499 1500 1500 1500 1500 1500 1500 1499
1472 1475 1473 1476 1477 1479 1480 1482 1482 1483 1483 1484 1484 1485 1486 1487 1488 1490 1491 1492 1493 1493 1494 1494 1495 1495 1496 1496 1497 1497 1497 1497 1498 1498 1498 1498 1498 1498 1498 1497 1497 1497 1497 1497
1473 1474 1474 1473 1478 1479 1481 1482 1482 1483 1483 1483 1484 1485 1486 1486 1487 1488 1490 1490 1491 1492 1492 1493 1493 1494 1494 1494 1495 1495 1495 1495 1495 1496 1496 1496 1496 1496 1495 1495 1495 1494 1494 1493